Weather History for KBUF - December, 2012

Change the Weather History Date:

Wednesday, December 5, 2012

  Actual Average Record
Temperature  
Mean Temperature 37 °F 34 °F  
Max Temperature 46 °F 40 °F 67 °F (1982)
Min Temperature 27 °F 27 °F -3 °F (1886)
Degree Days  
Heating Degree Days 28 32  
Month to date heating degree days 91 154  
Since 1 July heating degree days 1370 1487  
Cooling Degree Days 0 0  
Month to date cooling degree days 0 0  
Year to date cooling degree days 875 544  
Moisture  
Dew Point 26 °F    
Average Humidity 70    
Maximum Humidity 89    
Minimum Humidity 51    
Precipitation  
Precipitation T in 0.13 in 0.88 in (1977)
Month to date precipitation 0.62 0.63  
Year to date precipitation 29.78 37.22  
Snow  
Snow T in 0.60 in 9.50 in (1977)
Month to date snowfall T 3.1  
Since 1 July snowfall 2.4 11.9  
Snow Depth 0.00 in    
Sea Level Pressure  
Sea Level Pressure 30.22 in    
Wind  
Wind Speed 11 mph (WNW)    
Max Wind Speed 23 mph    
Max Gust Speed 30 mph    
Visibility 10 miles    
Events Rain , Snow    
T = Trace of Precipitation, MM = Missing Value Source: NWS Daily Summary

Daily Weather History Graph

Daily Weather History Graph

Search for Another Location

Airport or City:

Trip Planner

Search our weather history database for the weather conditions in past years. The results will help you decide how hot, cold, wet, or windy it might be!

Date:

Astronomy

Dec. 05, 2012 Rise Set
Actual Time 7:30 AM EST 4:40 PM EST
Civil Twilight 6:58 AM EST 5:12 PM EST
Nautical Twilight 6:23 AM EST 5:48 PM EST
Astronomical Twilight 5:49 AM EST 6:22 PM EST
Moon 11:35 PM EST (12/5) 11:46 AM EST (12/5)
Length of Visible Light 10h 13m
Length of Day
9h 09m
Waning Gibbous, 60% of the Moon is Illuminated
Dec 5
Waning Gibbous
Dec 6
Last Quarter
Dec 13
New
Dec 20
First Quarter
Dec 28
Full

Hourly Weather History & Observations

Time (EST) Temp. Windchill Dew Point Humidity Pressure Visibility Wind Dir Wind Speed Gust Speed Precip Events Conditions
12:29 AM 46.4 °F 39.8 °F 42.8 °F 87% 29.98 in 10.0 mi WSW 16.1 mph 24.2 mph 0.00 in Rain Light Rain
12:54 AM 45.0 °F 38.2 °F 41.0 °F 86% 30.00 in 10.0 mi WSW 15.0 mph 23.0 mph 0.00 in Rain Light Rain
12:55 AM 44.6 °F 37.8 °F 41.0 °F 87% 30.00 in 10.0 mi WSW 15.0 mph 23.0 mph N/A   Partly Cloudy
1:54 AM 44.1 °F 39.0 °F 37.9 °F 79% 30.02 in 10.0 mi WSW 9.2 mph - 0.00 in Rain Light Rain
2:54 AM 42.1 °F 35.7 °F 37.0 °F 82% 30.04 in 10.0 mi WSW 11.5 mph - N/A   Clear
3:54 AM 41.0 °F 34.3 °F 36.0 °F 82% 30.07 in 10.0 mi WSW 11.5 mph - N/A   Mostly Cloudy
4:54 AM 41.0 °F 34.3 °F 34.0 °F 76% 30.09 in 10.0 mi WSW 11.5 mph - N/A   Mostly Cloudy
5:54 AM 39.0 °F 29.0 °F 30.9 °F 73% 30.12 in 10.0 mi NNW 20.7 mph - N/A   Mostly Cloudy
6:54 AM 37.9 °F 30.0 °F 28.0 °F 68% 30.15 in 10.0 mi NW 12.7 mph - N/A   Mostly Cloudy
7:44 AM 37.4 °F 29.8 °F 24.8 °F 60% 30.15 in 10.0 mi NW 11.5 mph - N/A   Overcast
7:54 AM 37.0 °F 29.3 °F 25.0 °F 62% 30.17 in 10.0 mi NW 11.5 mph - N/A   Overcast
9:54 AM 34.0 °F 23.8 °F 21.0 °F 59% 30.23 in 10.0 mi West 16.1 mph 23.0 mph N/A   Overcast
10:54 AM 33.8 °F 25.3 °F 23.0 °F 65% 30.24 in 10.0 mi West 11.5 mph - 0.00 in   Overcast
11:54 AM 34.0 °F 24.2 °F 24.1 °F 67% 30.25 in 10.0 mi NW 15.0 mph 21.9 mph 0.00 in Snow Light Snow
12:54 PM 36.0 °F 25.3 °F 21.0 °F 55% 30.25 in 10.0 mi WNW 19.6 mph 26.5 mph 0.00 in   Mostly Cloudy
1:54 PM 34.0 °F 23.4 °F 18.0 °F 52% 30.27 in 10.0 mi West 17.3 mph 25.3 mph N/A   Mostly Cloudy
2:54 PM 32.0 °F 22.5 °F 25.0 °F 75% 30.30 in 9.0 mi North 12.7 mph - 0.00 in Snow Light Snow
3:54 PM 32.0 °F 23.6 °F 21.9 °F 66% 30.32 in 10.0 mi NNW 10.4 mph 18.4 mph 0.00 in   Mostly Cloudy
4:54 PM 30.9 °F 20.7 °F 21.9 °F 69% 30.35 in 10.0 mi NNW 13.8 mph - N/A   Mostly Cloudy
5:54 PM 30.9 °F 21.2 °F 19.0 °F 61% 30.38 in 10.0 mi NW 12.7 mph 18.4 mph N/A   Mostly Cloudy
6:54 PM 30.0 °F 21.7 °F 19.0 °F 64% 30.39 in 10.0 mi NNW 9.2 mph - N/A   Mostly Cloudy
7:54 PM 28.9 °F 22.8 °F 17.1 °F 61% 30.39 in 10.0 mi NW 5.8 mph - N/A   Mostly Cloudy
8:54 PM 28.9 °F 22.8 °F 17.1 °F 61% 30.38 in 10.0 mi WNW 5.8 mph - N/A   Mostly Cloudy
9:54 PM 28.0 °F 22.8 °F 18.0 °F 66% 30.38 in 10.0 mi NNW 4.6 mph - N/A   Scattered Clouds
10:54 PM 27.0 °F - 17.1 °F 66% 30.39 in 10.0 mi Calm Calm - N/A   Partly Cloudy
11:54 PM 27.0 °F 23.0 °F 17.1 °F 66% 30.40 in 10.0 mi WNW 3.5 mph - N/A   Scattered Clouds